Hourly Weather Roundup
Issued by NWS Central Illinois

Home | Current Version | Previous Version | Text Only | Print | Product List | Glossary On
Versions: 1 2 3 4 5 6 7 8 9 10 11 12 13 14 15 16 17 18 19 20 21 22 23 24 25 26 27 28 29 30 31 32 33 34 35 36 37 38 39 40 41 42 43 44 45 46 47 48 49 50
000
NZUS43 KILX 300010
HWRILX

AREA WEATHER ROUNDUP
NATIONAL WEATHER SERVICE, LINCOLN IL
700 PM CDT SUN MAY 29 2016


CITY           SKY/WX    TMP DP  RH WIND       PRES   REMARKS
BLOOMINGTON    SUNNY     80  60  50 W12       30.04F HX  81
6HR MIN TEMP:  78; 6HR MAX TEMP:  82;

CHAMPAIGN      SUNNY     81  54  39 NW16      30.02F HX  81
6HR MIN TEMP:  81; 6HR MAX TEMP:  87;

DANVILLE       SUNNY     80  55  42 NW8       29.99F HX  80
6HR MIN TEMP:  80; 6HR MAX TEMP:  85;

DECATUR        SUNNY     81  55  40 NW9       30.02F HX  81
6HR MIN TEMP:  80; 6HR MAX TEMP:  85;

EFFINGHAM      CLOUDY    82  62  50 W7        30.05R HX  83
FLORA          SUNNY     80  65  61 SW3       30.04S HX  82
6HR MIN TEMP:  80; 6HR MAX TEMP:  87;

GALESBURG      MOSUNNY   79  56  44 W9        30.02F HX  80
JACKSONVILLE   SUNNY     83  53  36 W9        30.03S HX  81
6HR MIN TEMP:  81; 6HR MAX TEMP:  85;

LACON          MOSUNNY   81  54  39 W9        30.00S HX  80
6HR MIN TEMP:  79; 6HR MAX TEMP:  83;

LAWRENCEVILLE  MOSUNNY   80  60  50 W8        30.03S HX  81
6HR MIN TEMP:  80; 6HR MAX TEMP:  88;

LITCHFIELD     SUNNY     81  56  42 W8        30.04S HX  81
$$


CITY           SKY/WX    TMP DP  RH WIND       PRES   REMARKS
LINCOLN        SUNNY     82  58  44 CALM      30.03S HX  81
6HR MIN TEMP:  81; 6HR MAX TEMP:  84;

MACOMB         SUNNY     81  53  38 W7        30.05S HX  80
MATTOON        SUNNY     80  53  39 NW10      30.01F HX  80
6HR MIN TEMP:  80; 6HR MAX TEMP:  84;

MT CARMEL AP   SUNNY     82  57  41 NW9       30.03R HX  82
6HR MIN TEMP:  82; 6HR MAX TEMP:  87;

OLNEY-NOBLE AP MOSUNNY   77  66  69 CALM      30.04S
PARIS          CLOUDY    82  55  39 W6        30.02S HX  81
6HR MIN TEMP:  82; 6HR MAX TEMP:  85;

PEORIA         MOSUNNY   81  54  39 NW9       30.02F HX  81
6HR MIN TEMP:  79; 6HR MAX TEMP:  83;

PONTIAC        MOSUNNY   82  56  40 W15       30.01S HX  82
RANTOUL        SUNNY     82  58  45 W12       30.02S HX  82
6HR MIN TEMP:  82; 6HR MAX TEMP:  85;

ROBINSON       MOSUNNY   79  61  53 W7        30.03S HX  80
6HR MIN TEMP:  79; 6HR MAX TEMP:  85;

SPRINGFIELD    SUNNY     83  56  39 NW7       30.03F HX  82
6HR MIN TEMP:  83; 6HR MAX TEMP:  87;

TAYLORVILLE    SUNNY     82  55  40 W8        30.03S HX  81
$$

...REGIONAL REPORTS...


CITY           SKY/WX    TMP DP  RH WIND       PRES   REMARKS
CHICAGO O`HARE MOSUNNY   78  56  46 W12G23    29.97S
KANKAKEE       SUNNY     81  54  39 NW9       30.00S HX  80
MOLINE         SUNNY     81  57  43 W7        29.99F HX  81
MOUNT STERLING SUNNY     80  59  48 NW5       30.03F HX  81
MOUNT VERNON   CLOUDY    77  66  69 CALM      30.05S
PITTSFIELD     MOSUNNY   82  61  49 W5        30.05S HX  82
QUINCY         SUNNY     81  59  47 W6        30.03F HX  81
ROCKFORD       MOSUNNY   77  57  50 W8        30.00F
$$


CITY           SKY/WX    TMP DP  RH WIND       PRES   REMARKS
BURLINGTON     SUNNY     80  57  45 W5        30.02S HX  80
CEDAR RAPIDS   MOSUNNY   79  59  50 W9        29.99F HX  80
DES MOINES     MOSUNNY   82  52  35 W6        29.99F HX  81
KIRKSVILLE     MOSUNNY   82  63  52 VRB3      30.03F HX  83
OTTUMWA        SUNNY     81  56  42 W6        30.00F HX  81
ST LOUIS       PTSUNNY   83  58  42 W5        30.05S HX  83
$$


CITY           SKY/WX    TMP DP  RH WIND       PRES   REMARKS
TERRE HAUTE    CLOUDY    83  59  44 SW10      30.01F HX  83
EVANSVILLE     PTSUNNY   80  65  59 S3        30.03S HX  82
INDIANAPOLIS   PTSUNNY   81  55  40 W9        29.99F HX  81
LAFAYETTE      SUNNY     79  53  40 W10       29.99F
MADISON        CLOUDY    74  57  55 VRB5      29.96S
MILWAUKEE      MOSUNNY   78  55  44 W13       29.94S
$$






USA.gov is the U.S. government's official web portal to all federal, state and local government web resources and services.